Weather History for Cavalier, ND

Change the Weather History Date:

Sunday, March 24, 2013

  Actual Average (KGAF) Record (KGAF)
Temperature  
Mean Temperature 22 °F -  
Max Temperature 24 °F 40 °F 65 °F (1981)
Min Temperature 19 °F 20 °F -25 °F (1974)
Degree Days  
Heating Degree Days 44    
Moisture  
Dew Point 20 °F    
Average Humidity 92    
Maximum Humidity 100    
Minimum Humidity 80    
Precipitation  
Precipitation 0.05 in - - ()
Sea Level Pressure  
Sea Level Pressure 30.23 in    
Wind  
Wind Speed 13 mph (NNW)    
Max Wind Speed 17 mph    
Max Gust Speed 21 mph    
Visibility 9 miles    
Events Rain , Snow    
Averages and records for this station are not official NWS values.
T = Trace of Precipitation, MM = Missing Value Source: NWS Daily Summary

Daily Weather History Graph

Daily Weather History Graph

Search for Another Location

Airport:

Trip Planner

Search our weather history database for the weather conditions in past years. The results will help you decide how hot, cold, wet, or windy it might be!

Date:

Astronomy

Mar. 24, 2013 Rise Set
Actual Time 7:24 AM CDT 7:49 PM CDT
Civil Twilight 6:52 AM CDT 8:21 PM CDT
Nautical Twilight 6:15 AM CDT 8:58 PM CDT
Astronomical Twilight 5:36 AM CDT 9:38 PM CDT
Moon 5:09 PM CDT (3/24) 5:47 AM CDT (3/24)
Length of Visible Light 13h 28m
Length of Day
12h 25m
Waxing Gibbous, 92% of the Moon is Illuminated
Mar 24
Waxing Gibbous
Mar 27
Full
Apr 2
Last Quarter
Apr 10
New
Apr 18
First Quarter

Hourly Weather History & Observations

Time (CDT) Temp. Windchill Dew Point Humidity Pressure Visibility Wind Dir Wind Speed Gust Speed Precip Events Conditions
12:15 AM 23.0 °F 12.4 °F 19.4 °F 86% 30.20 in 10.0 mi NNW 10.4 mph - N/A   Overcast
12:35 AM 23.0 °F 11.7 °F 19.4 °F 86% 30.19 in 10.0 mi NNW 11.5 mph - N/A Snow Light Snow
12:55 AM 23.0 °F 12.4 °F 19.4 °F 86% 30.19 in 10.0 mi NNW 10.4 mph - N/A   Overcast
1:15 AM 23.0 °F 11.7 °F 19.4 °F 86% 30.19 in 10.0 mi NNW 11.5 mph - N/A   Overcast
1:35 AM 23.0 °F 12.4 °F 19.4 °F 86% 30.19 in 10.0 mi North 10.4 mph - N/A Snow Light Snow
1:55 AM 23.0 °F 11.7 °F 21.2 °F 93% 30.19 in 10.0 mi NNW 11.5 mph - N/A   Mostly Cloudy
2:15 AM 23.0 °F 11.7 °F 21.2 °F 93% 30.19 in 9.0 mi NNW 11.5 mph - N/A Snow Light Snow
2:35 AM 23.0 °F 11.7 °F 21.2 °F 93% 30.19 in 4.0 mi NNW 11.5 mph - N/A Snow Light Snow
2:55 AM 23.0 °F 12.4 °F 21.2 °F 93% 30.19 in 8.0 mi NNW 10.4 mph - N/A Rain Light Freezing Rain
3:15 AM 23.0 °F 12.4 °F 21.2 °F 93% 30.19 in 9.0 mi North 10.4 mph - N/A Rain Light Freezing Rain
3:35 AM 23.0 °F 12.4 °F 19.4 °F 86% 30.19 in 7.0 mi North 10.4 mph - N/A   Mostly Cloudy
3:55 AM 23.0 °F 12.4 °F 19.4 °F 86% 30.19 in 10.0 mi NNW 10.4 mph - N/A   Mostly Cloudy
4:15 AM 23.0 °F 11.7 °F 19.4 °F 86% 30.19 in 10.0 mi North 11.5 mph - N/A   Overcast
4:35 AM 23.0 °F 13.9 °F 19.4 °F 86% 30.19 in 10.0 mi North 8.1 mph - N/A   Mostly Cloudy
4:55 AM 23.0 °F 13.1 °F 19.4 °F 86% 30.19 in 10.0 mi North 9.2 mph - N/A   Overcast
5:15 AM 21.2 °F 10.1 °F 19.4 °F 93% 30.19 in 10.0 mi North 10.4 mph - N/A   Overcast
5:35 AM 21.2 °F 8.9 °F 19.4 °F 93% 30.19 in 9.0 mi North 12.7 mph - N/A Snow Light Snow
5:55 AM 21.2 °F 8.9 °F 19.4 °F 93% 30.19 in 5.0 mi NNW 12.7 mph - N/A Snow Light Snow
6:15 AM 21.2 °F 8.9 °F 19.4 °F 93% 30.20 in 8.0 mi North 12.7 mph - N/A Snow Light Snow
6:35 AM 19.4 °F 7.9 °F 19.4 °F 100% 30.20 in 8.0 mi NNW 10.4 mph - N/A   Overcast
6:55 AM 19.4 °F 6.0 °F 19.4 °F 100% 30.20 in 8.0 mi North 13.8 mph - N/A Snow Light Snow
7:15 AM 19.4 °F 6.0 °F 19.4 °F 100% 30.21 in 10.0 mi North 13.8 mph - N/A   Overcast
7:35 AM 19.4 °F 7.2 °F 19.4 °F 100% 30.21 in 9.0 mi North 11.5 mph - N/A Snow Light Snow
7:55 AM 19.4 °F 5.5 °F 17.6 °F 93% 30.21 in 9.0 mi North 15.0 mph - N/A Snow Light Snow
8:15 AM 19.4 °F 7.2 °F 17.6 °F 93% 30.22 in 8.0 mi North 11.5 mph - N/A Snow Light Snow
8:35 AM 19.4 °F 6.6 °F 17.6 °F 93% 30.23 in 5.0 mi NNW 12.7 mph - N/A Snow Light Snow
8:55 AM 19.4 °F 6.0 °F 17.6 °F 93% 30.23 in 9.0 mi NNW 13.8 mph 20.7 mph N/A Rain Light Freezing Rain
9:15 AM 19.4 °F 6.0 °F 17.6 °F 93% 30.23 in 2.5 mi NNW 13.8 mph 18.4 mph N/A Snow Light Snow
9:35 AM 19.4 °F 6.0 °F 17.6 °F 93% 30.23 in 0.5 mi NNW 13.8 mph - 0.05 in Snow Snow
9:55 AM 19.4 °F 6.0 °F 17.6 °F 93% 30.23 in 7.0 mi NNW 13.8 mph 19.6 mph 0.05 in Rain Light Freezing Rain
10:15 AM 19.4 °F 5.0 °F 17.6 °F 93% 30.23 in 8.0 mi NNW 16.1 mph - N/A   Overcast
10:35 AM 19.4 °F 4.5 °F 17.6 °F 93% 30.23 in 10.0 mi NNW 17.3 mph - N/A   Overcast
10:55 AM 19.4 °F 4.5 °F 17.6 °F 93% 30.23 in 10.0 mi NNW 17.3 mph - N/A   Overcast
11:15 AM 19.4 °F 5.0 °F 17.6 °F 93% 30.23 in 9.0 mi NNW 16.1 mph - N/A   Overcast
11:35 AM 19.4 °F 4.5 °F 17.6 °F 93% 30.23 in 10.0 mi NNW 17.3 mph - N/A   Overcast
12:15 PM 21.2 °F 7.3 °F 17.6 °F 86% 30.24 in 10.0 mi NNW 16.1 mph 20.7 mph N/A   Mostly Cloudy
12:35 PM 21.2 °F 7.3 °F 17.6 °F 86% 30.23 in 10.0 mi NNW 16.1 mph - N/A   Mostly Cloudy
12:55 PM 21.2 °F 7.3 °F 17.6 °F 86% 30.23 in 10.0 mi NNW 16.1 mph - N/A   Partly Cloudy
1:15 PM 23.0 °F 9.6 °F 17.6 °F 80% 30.23 in 10.0 mi NNW 16.1 mph - N/A   Clear
1:35 PM 23.0 °F 10.1 °F 17.6 °F 80% 30.23 in 10.0 mi NNW 15.0 mph 19.6 mph N/A   Clear
1:55 PM 23.0 °F 9.6 °F 19.4 °F 86% 30.23 in 10.0 mi NNW 16.1 mph 20.7 mph N/A   Clear
2:15 PM 23.0 °F 10.6 °F 19.4 °F 86% 30.23 in 10.0 mi NNW 13.8 mph 18.4 mph N/A   Partly Cloudy
2:35 PM 24.8 °F 12.4 °F 19.4 °F 80% 30.23 in 10.0 mi NNW 15.0 mph - N/A   Mostly Cloudy
2:55 PM 24.8 °F 12.4 °F 21.2 °F 86% 30.23 in 10.0 mi NNW 15.0 mph - N/A   Scattered Clouds
3:15 PM 24.8 °F 12.4 °F 21.2 °F 86% 30.23 in 10.0 mi NNW 15.0 mph - N/A   Clear
3:35 PM 24.8 °F 11.9 °F 23.0 °F 93% 30.23 in 10.0 mi NNW 16.1 mph - N/A   Clear
3:55 PM 24.8 °F 12.9 °F 21.2 °F 86% 30.23 in 10.0 mi NNW 13.8 mph - N/A   Clear
4:15 PM 24.8 °F 11.9 °F 23.0 °F 93% 30.23 in 10.0 mi NNW 16.1 mph - N/A   Partly Cloudy
4:35 PM 24.8 °F 12.4 °F 23.0 °F 93% 30.23 in 10.0 mi NNW 15.0 mph 20.7 mph N/A   Mostly Cloudy
4:55 PM 24.8 °F 12.9 °F 21.2 °F 86% 30.23 in 10.0 mi NNW 13.8 mph 20.7 mph N/A   Partly Cloudy
5:15 PM 24.8 °F 14.0 °F 23.0 °F 93% 30.23 in 10.0 mi North 11.5 mph 17.3 mph N/A   Scattered Clouds
5:35 PM 24.8 °F 12.9 °F 23.0 °F 93% 30.23 in 10.0 mi NNW 13.8 mph - N/A   Mostly Cloudy
5:55 PM 24.8 °F 12.4 °F 23.0 °F 93% 30.24 in 10.0 mi NNW 15.0 mph 20.7 mph N/A   Overcast
6:15 PM 24.8 °F 12.9 °F 24.8 °F 100% 30.24 in 10.0 mi NNW 13.8 mph - N/A   Mostly Cloudy
6:35 PM 24.8 °F 12.9 °F 24.8 °F 100% 30.24 in 10.0 mi NNW 13.8 mph 20.7 mph N/A   Mostly Cloudy
6:55 PM 24.8 °F 12.4 °F 23.0 °F 93% 30.25 in 10.0 mi NNW 15.0 mph 18.4 mph N/A   Overcast
7:15 PM 24.8 °F 12.9 °F 23.0 °F 93% 30.25 in 10.0 mi NNW 13.8 mph - N/A   Scattered Clouds
7:35 PM 24.8 °F 12.9 °F 23.0 °F 93% 30.25 in 10.0 mi NNW 13.8 mph 18.4 mph N/A   Mostly Cloudy
7:55 PM 24.8 °F 13.4 °F 23.0 °F 93% 30.25 in 10.0 mi NNW 12.7 mph - N/A   Overcast
8:15 PM 24.8 °F 12.9 °F 23.0 °F 93% 30.26 in 10.0 mi NNW 13.8 mph - N/A   Overcast
8:35 PM 24.8 °F 12.4 °F 23.0 °F 93% 30.26 in 10.0 mi NNW 15.0 mph 20.7 mph N/A   Overcast
8:55 PM 23.0 °F 9.2 °F 23.0 °F 100% 30.26 in 10.0 mi NNW 17.3 mph - N/A   Overcast
9:15 PM 23.0 °F 10.6 °F 23.0 °F 100% 30.26 in 10.0 mi NNW 13.8 mph - N/A Rain Light Freezing Rain
9:35 PM 23.0 °F 10.6 °F 23.0 °F 100% 30.26 in 10.0 mi NNW 13.8 mph - N/A   Overcast
9:55 PM 23.0 °F 10.1 °F 23.0 °F 100% 30.26 in 10.0 mi NNW 15.0 mph 19.6 mph N/A   Overcast
10:15 PM 23.0 °F 10.1 °F 21.2 °F 93% 30.27 in 10.0 mi NNW 15.0 mph 20.7 mph N/A   Overcast
10:35 PM 23.0 °F 10.6 °F 21.2 °F 93% 30.27 in 10.0 mi NNW 13.8 mph - N/A   Overcast
10:55 PM 23.0 °F 9.6 °F 21.2 °F 93% 30.27 in 10.0 mi NNW 16.1 mph - N/A   Overcast
11:15 PM 23.0 °F 10.1 °F 21.2 °F 93% 30.27 in 10.0 mi NNW 15.0 mph - N/A   Overcast
11:35 PM 21.2 °F 8.9 °F 21.2 °F 100% 30.28 in 10.0 mi NNW 12.7 mph 19.6 mph N/A   Overcast
11:55 PM 21.2 °F 8.9 °F 21.2 °F 100% 30.28 in 10.0 mi NNW 12.7 mph - N/A   Overcast